Regional Weather Roundup
Issued by NWS

Home | Current Version | Previous Version | Text Only | Print | Product List | Glossary Off
Versions: 1 2 3 4 5 6 7 8 9 10 11 12 13 14 15 16 17 18 19 20 21 22 23 24 25 26 27 28 29 30 31 32 33 34 35 36 37 38 39 40 41 42 43 44 45 46 47 48 49 50

000
ASUS43 KIND 221359
RWRIN

WEATHER ROUNDUP FOR INDIANA
NATIONAL WEATHER SERVICE INDIANAPOLIS IN
1000 AM EDT FRI MAY 22 2015

NOTE: "FAIR" INDICATES FEW OR NO CLOUDS BELOW 12,000 FEET WITH NO
SIGNIFICANT WEATHER AND/OR OBSTRUCTIONS TO VISIBILITY.

* - STATION DOES NOT REPORT WEATHER SUCH AS PRECIPITATION OR FOG.

+ - STATION NOT QUALITY CONTROLLED BY THE NATIONAL WEATHER SERVICE.
    USE DATA WITH CAUTION...ESPECIALLY DEWPOINT AND RELATIVE
    HUMIDITY OBSERVATIONS.

INZ001>003-010>013-019-020-221500-
NORTHWEST INDIANA

CITY           SKY/WX    TMP DP  RH WIND       PRES   REMARKS
GARY /AIRPORT/ SUNNY     57  46  67 N8        30.19R

$$

LMZ046-743>745-221500-
SOUTHERN LAKE MICHIGAN

STATION/POSITION TIME  TEMP    WIND        PRES    WAVE
                       AIR SEA DIR/SP/G            HT
                 (UTC) (F)     (DEG/KT/KT) (MB)    (FT)
BURNS HARBOR     1300   52     350/  5/  6 1022.0R
MICHIGAN CITY    1300   55      30/  4/  5   N/A
5NW MICH CITY    1300   52 51   40/  4/  4   N/A     1

$$

INZ004-005-014>016-021>024-221500-
NORTH CENTRAL INDIANA

CITY           SKY/WX    TMP DP  RH WIND       PRES   REMARKS
ELKHART        SUNNY     59  36  41 E7        30.19R
GOSHEN         SUNNY     59  36  42 E9        30.17R
SOUTH BEND     SUNNY     61  33  35 E8        30.19R

$$

INZ006>009-017-018-025>027-221500-
NORTHEAST INDIANA

CITY           SKY/WX    TMP DP  RH WIND       PRES   REMARKS
ANGOLA *+      SUNNY     57  43  58 NE8       30.17R
FORT WAYNE     SUNNY     60  46  59 N7        30.18R

$$

INZ028-029-035-036-043>045-051>053-221500-
WEST CENTRAL INDIANA

CITY           SKY/WX    TMP DP  RH WIND       PRES   REMARKS
GREENCASTLE +  SUNNY     57  43  58 W5        30.21R
LAFAYETTE      SUNNY     59  48  67 W6        30.18R
TERRE HAUTE    SUNNY     59  48  67 W12       30.21R

$$

INZ030>032-037>040-046>048-054>057-064-065-221500-
CENTRAL INDIANA

CITY           SKY/WX    TMP DP  RH WIND       PRES   REMARKS
ANDERSON       SUNNY     57  41  54 SW6       30.19R
COLUMBUS       SUNNY     59  45  58 SW10      30.22R
GREENWOOD *+   SUNNY     59  43  55 W9        30.20R
INDIANAPOLIS   SUNNY     60  45  57 SW12      30.18R
-EAGLE CREEK   SUNNY     60  46  59 VRB7      30.18R
KOKOMO *+      SUNNY     61  46  59 W9        30.17R
MT COMFORT *+  SUNNY     61  36  39 W10       30.19S
SHELBYVILLE    SUNNY     63  45  51 W12       30.19R

$$

INZ033-034-041-042-049-050-058-059-221500-
EAST CENTRAL INDIANA

CITY           SKY/WX    TMP DP  RH WIND       PRES   REMARKS
MUNCIE         SUNNY     59  46  62 W8        30.18R

$$

INZ060-061-067>069-081>083-085>088-221500-
SOUTHWEST INDIANA

CITY           SKY/WX    TMP DP  RH WIND       PRES   REMARKS
EVANSVILLE     SUNNY     61  47  59 SW14      30.28R
HUNTINGBURG *+ SUNNY     57  46  67 SW12      30.27S

$$

INZ062-063-066-070>080-084-089>092-221500-
SOUTH CENTRAL AND SOUTHEAST INDIANA

CITY           SKY/WX    TMP DP  RH WIND       PRES   REMARKS
BLOOMINGTON    SUNNY     60  45  57 W10       30.22R
MADISON *+     SUNNY     59  43  55 SW9       30.26R
SEYMOUR +      SUNNY     63  45  51 W13       30.23S

$$



USA.gov is the U.S. government's official web portal to all federal, state and local government web resources and services.